DROR 1

Last updated on Fri Jul 18 2025 00:02:08 GMT+0000 (Coordinated Universal Time)

1 64784U 25148A 25197.13967436 .00000034 00000+0 18632-3 0 9991 2 64784 23.8557 198.9333 8224026 181.0806 173.7716 1.19604520 50
UTC large
Height (km)
Speed (km/s)
/
Latitude / Longitude
Inclination (degrees)
Orbital Period (minutes)
Azimuth
Elevation
Range (km)
Doppler Factor

Next 0 passes for location: London (51.5072 / 0.1276)

Sorry there are no passes over London.